Home   Weather   Salta   Past weeks

Flag for Argentina Past Weather in Salta, Salta, Argentina — Yesterday and Last 2 Weeks

Now
61 °F

Sunny.


Feels Like: 61 °F
Forecast: 53 / 83 °F
Wind: 2 mph from East

Location: Salta Aerodrome

Current Time: Dec 11, 2016 at 9:10:08 am

Latest Report: Dec 11, 2016 at 8:00 am


Visibility: 10 mi

Pressure: 30.07 "Hg (26.14 "Hg at 1184m altitude)

Humidity: 83%

Dew Point: 55 °F

Location of SaltaLocation

Past Weather in Salta — Graph

°F

Salta Temperature Yesterday

Maximum temperature yesterday: 75 °F (at 1:00 pm)
Minimum temperature yesterday: 59 °F (at 3:00 am)
Average temperature yesterday: 67 °F

High & Low Weather Summary for the Past Weeks

 TemperatureHumidityPressure
High91 °F (Dec 5, 4:00 pm)100% (Nov 28, 10:00 pm)30.30 "Hg (Nov 28, 10:00 pm)
Low54 °F (Dec 11, 5:00 am)38% (Dec 5, 4:00 pm)29.71 "Hg (Nov 26, 6:00 pm)
Average68 °F80%29.98 "Hg
* Reported Nov 26 8:00 am — Dec 11 8:00 am, Salta, Weather by CustomWeather, © 2016

Note: Actual official high and low records may vary slightly from our data, if they occured in-between our weather recording intervals... More about our weather records

Advertising

Salta Weather History for the Previous 24 Hours

Scroll right to see more
 ConditionsComfort  
Time TempWeatherWind HumidityBarometerVisibility
8:00 am
Sun, Dec 11
61 °FSunny.2 mph83%30.07 "Hg10 mi
7:00 am54 °FSunny.2 mph88%30.04 "Hg10 mi
6:00 am54 °FClear.3 mph94%30.04 "Hg10 mi
5:00 am54 °FClear.No wind94%30.01 "Hg10 mi
4:00 am57 °FClear.3 mph88%30.01 "Hg10 mi
3:00 am55 °FClear.No wind94%29.98 "Hg10 mi
2:00 am57 °FClear.3 mph82%30.01 "Hg10 mi
1:00 am59 °FPassing clouds.2 mph82%30.04 "HgN/A
12:00 am61 °FPassing clouds.2 mph77%30.04 "HgN/A
11:00 pm
Sat, Dec 10
63 °FPassing clouds.3 mph77%30.04 "HgN/A
10:00 pm66 °FPassing clouds.10 mph68%30.01 "HgN/A
9:00 pm68 °FPartly cloudy.7 mph60%29.98 "HgN/A
8:00 pm70 °FBroken clouds.5 mph57%29.95 "HgN/A
7:00 pm72 °FBroken clouds.2 mph61%29.92 "HgN/A
6:00 pm73 °FOvercast.6 mph57%29.89 "HgN/A
5:00 pm72 °FOvercast.9 mph57%29.89 "HgN/A
4:00 pm73 °FPartly sunny.14 mph53%29.89 "HgN/A
3:00 pm75 °FBroken clouds.3 mph47%29.92 "HgN/A
2:00 pm75 °FPartly sunny.8 mph47%29.92 "HgN/A
1:00 pm75 °FPartly sunny.2 mph47%29.95 "HgN/A
12:00 pm72 °FPartly sunny.5 mph57%29.98 "HgN/A
11:00 am70 °FScattered clouds.3 mph60%29.98 "HgN/A
10:00 am64 °FPartly sunny.3 mph78%30.01 "HgN/A
9:00 am64 °FBroken clouds.2 mph78%30.01 "HgN/A
Weather by CustomWeather, © 2016

See weather overviewHow to use our weather pages